Location: Ahausen
(50.4985°N, 8.2722°E)
Time: 19:18:35
(UTC+00:00)

Cosmos 2278 Rocket - Pass Details

Date: 18 September 2020
Orbit: 841 x 845 km, 71.0° (Epoch: 22 October)

Event Time Altitude Azimuth Distance (km) Brightness Sun altitude
Exits shadow 21:22:32 25° 35° (NE) 1,646 3.8 -32.3°
Drops below altitude 10° 21:24:47 10° 32° (NNE) 2,471 4.8 -32.5°
Sets 21:27:15 0° 31° (NNE) 3,410 5.6 -32.7°
